Location: Eschentzwiller
(47.7125°N, 7.3981°E)
Time: 01:25:36
(UTC+00:00)

Geosat - Pass Details

Date: 27 October 2020
Orbit: 763 x 766 km, 108.0° (Epoch: 26 November)

Event Time Altitude Azimuth Distance (km) Brightness Sun altitude
Exits shadow 19:06:43 46° 355° (N) 1,033 4.7 -28.5°
Maximum altitude 19:07:56 59° 304° (NW) 884 4.4 -28.7°
Drops below altitude 10° 19:12:52 10° 226° (SW) 2,300 6.8 -29.5°
Sets 19:15:09 0° 223° (SW) 3,223 7.6 -29.9°
